Aeroporto :
LOGIN :

Iscrizione | Disclaimer

   EN    FR    IT 

 










Sommario :    VFR   VFR Marginale   IFR   IFR Intensivo   IFR Molto Intensivo
Visibilità : 
Base nubi : 
>= 8 km
>= 3000ft
5 / 8 km
1000 / 3000 ft
1500m / 5 km
500 / 1000 ft
800 / 1500m
200 / 500 ft
< 800m
< 200 ft
Simboli :   Temporali  Nebbia  Neve Forte  Precipitazioni Forti  Vento > 20 kt
SIGMETs :   Varie  Temporali  Ghiacco  Turbolenza  Onda orograficha  Ceneri Vulcaniche







- Altitudine del aeroporto : 681 ft
- Codice IATA : LBA
- Carte del aeroporto


EGNM - Leeds Bradford

ULTIMO METAR :
  • 171420Z 22011KT 180V250 9999 FEW019 SCT043 20/11 Q1011

METARs OBSOLETI :
  • 171350Z 22009KT 170V300 9999 FEW018 SCT045 20/11 Q1011
  • 171320Z 23009KT 190V250 9999 SCT042 20/11 Q1012
  • 171250Z 24011KT 210V280 9999 SCT041 21/10 Q1012
  • 171220Z 22012KT 160V290 9999 FEW037 21/10 Q1012
  • 171150Z 24012KT 200V280 9999 FEW037 20/10 Q1012

TAF TAF EGNM
Valido dal 17 a 12 ore il 18 a 12 ore UTC


171104Z 1712/1812 22006KT 9999 FEW030
PROB30
TEMPO 1712/1716 9000 -SHRA
TEMPO 1716/1805 7000 RA BKN014
PROB30
TEMPO 1800/1805 4000 RADZ BKN006
BECMG 1803/1806 28010KT
ATIS : +44 113 250 9696 (x2489)
Nessun NOTAM noto per questo aeroporto.



MetMap, La meteo Aeronautica in un colpo d'occhio ! - Copyright ORBIFLY Dicembre 2007 - Disclaimer

ORBIFLY MET'MAP TEAM :

Programmazione e sviluppo : Alexandra Zaïnal
Concezione e sviluppo : Baudouin d'Aumeries
Co-Programmazione e sviluppo : Marc-Olivier Méhu
Supporto tecnico e logistico : Manuel Goepfert
Aiuto per la traduzione : Arnaldo La Scala

Contatto : metmap@orbifly.com




FONTI E CREDITI :

   NOAA